Time,TemperatureF,DewpointF,PressureIn,WindDirection,WindDirectionDegrees,WindSpeedMPH,WindSpeedGustMPH,Humidity,HourlyPrecipIn,Conditions,Clouds,dailyrainin,SolarRadiationWatts/m^2,SoftwareType,DateUTC
2013-07-24 00:00:00,57.8,54.0,29.93,North,9,4.0,4.0,87,0.00,CLR,,0.00,0.0,WeatherDisplay:10.37,2013-07-24 04:00:00,
2013-07-24 00:01:00,57.8,54.0,29.93,North,10,4.0,4.0,87,0.00,CLR,,0.00,0.0,WeatherDisplay:10.37,2013-07-24 04:01:00,
2013-07-24 00:02:00,57.7,53.9,29.93,North,10,3.5,3.5,87,0.00,CLR,,0.00,0.0,WeatherDisplay:10.37,2013-07-24 04:02:00,
2013-07-24 00:07:00,57.7,54.2,29.94,North,5,4.6,4.6,88,0.00,CLR,,0.00,0.0,WeatherDisplay:10.37,2013-07-24 04:07:00,
2013-07-24 00:12:00,57.7,54.2,29.94,North,11,4.6,4.6,88,0.00,CLR,,0.00,0.0,WeatherDisplay:10.37,2013-07-24 04:12:00,
2013-07-24 00:17:00,57.7,54.2,29.94,North,355,5.0,5.0,88,0.00,CLR,,0.00,0.0,WeatherDisplay:10.37,2013-07-24 04:17:00,
2013-07-24 00:22:00,58.0,54.5,29.94,North,11,5.8,5.8,88,0.00,CLR,,0.00,0.0,WeatherDisplay:10.37,2013-07-24 04:22:00,
2013-07-24 00:27:00,58.2,54.3,29.94,North,5,4.6,4.6,87,0.00,CLR,,0.00,0.0,WeatherDisplay:10.37,2013-07-24 04:27:00,
2013-07-24 00:32:00,58.4,54.5,29.94,North,355,5.8,5.8,87,0.00,CLR,,0.00,0.0,WeatherDisplay:10.37,2013-07-24 04:32:00,
2013-07-24 00:37:00,58.6,54.4,29.94,North,355,4.6,4.6,86,0.00,CLR,,0.00,0.0,WeatherDisplay:10.37,2013-07-24 04:37:00,
2013-07-24 00:42:00,58.7,54.5,29.94,North,349,6.0,6.0,86,0.00,CLR,,0.00,0.0,WeatherDisplay:10.37,2013-07-24 04:42:00,
2013-07-24 00:47:00,58.8,54.6,29.95,NNW,345,5.8,5.8,86,0.00,CLR,,0.00,0.0,WeatherDisplay:10.37,2013-07-24 04:47:00,
2013-07-24 00:52:00,58.9,54.4,29.94,NNE,13,3.5,3.5,85,0.00,CLR,,0.00,0.0,WeatherDisplay:10.37,2013-07-24 04:52:00,
2013-07-24 00:57:00,58.5,54.3,29.94,NNE,15,3.5,3.5,86,0.00,CLR,,0.00,0.0,WeatherDisplay:10.37,2013-07-24 04:57:00,
2013-07-24 01:02:00,58.1,53.9,29.94,NNE,15,2.3,2.3,86,0.00,CLR,,0.00,0.0,WeatherDisplay:10.37,2013-07-24 05:02:00,
2013-07-24 01:07:00,57.9,54.1,29.94,NNE,15,2.3,2.3,87,0.00,CLR,,0.00,0.0,WeatherDisplay:10.37,2013-07-24 05:07:00,
2013-07-24 01:12:00,57.8,54.3,29.94,NNW,343,3.5,3.5,88,0.00,CLR,,0.00,0.0,WeatherDisplay:10.37,2013-07-24 05:12:00,
2013-07-24 01:17:00,57.9,54.4,29.94,NNW,339,3.5,3.5,88,0.00,CLR,,0.00,0.0,WeatherDisplay:10.37,2013-07-24 05:17:00,
2013-07-24 01:22:00,57.8,54.0,29.94,NNW,339,3.5,3.5,87,0.00,CLR,,0.00,0.0,WeatherDisplay:10.37,2013-07-24 05:22:00,
2013-07-24 01:27:00,57.6,54.1,29.95,NNW,339,3.5,3.5,88,0.00,CLR,,0.00,0.0,WeatherDisplay:10.37,2013-07-24 05:27:00,
2013-07-24 01:32:00,57.5,54.0,29.94,NNW,339,3.5,3.5,88,0.00,CLR,,0.00,0.0,WeatherDisplay:10.37,2013-07-24 05:32:00,
2013-07-24 01:37:00,57.2,53.7,29.94,NNW,346,3.5,3.5,88,0.00,CLR,,0.00,0.0,WeatherDisplay:10.37,2013-07-24 05:37:00,
2013-07-24 01:42:00,57.1,53.9,29.94,NNW,339,4.0,4.0,89,0.00,CLR,,0.00,0.0,WeatherDisplay:10.37,2013-07-24 05:42:00,
2013-07-24 01:47:00,57.1,53.9,29.94,NNW,346,4.0,4.0,89,0.00,CLR,,0.00,0.0,WeatherDisplay:10.37,2013-07-24 05:47:00,
2013-07-24 01:52:00,57.1,53.9,29.94,NNW,343,4.6,4.6,89,0.00,CLR,,0.00,0.0,WeatherDisplay:10.37,2013-07-24 05:52:00,
2013-07-24 01:57:00,57.2,54.0,29.93,NNW,340,5.8,5.8,89,0.00,CLR,,0.00,0.0,WeatherDisplay:10.37,2013-07-24 05:57:00,
2013-07-24 02:02:00,57.2,54.0,29.93,NNW,341,3.5,3.5,89,0.00,CLR,,0.00,0.0,WeatherDisplay:10.37,2013-07-24 06:02:00,
2013-07-24 02:07:00,57.1,53.9,29.93,NNW,341,4.0,4.0,89,0.00,CLR,,0.00,0.0,WeatherDisplay:10.37,2013-07-24 06:07:00,
2013-07-24 02:12:00,57.1,53.9,29.93,NNW,341,4.0,4.0,89,0.00,CLR,,0.00,0.0,WeatherDisplay:10.37,2013-07-24 06:12:00,
2013-07-24 02:17:00,57.1,53.9,29.94,NNW,336,3.5,3.5,89,0.00,CLR,,0.00,0.0,WeatherDisplay:10.37,2013-07-24 06:17:00,
2013-07-24 02:22:00,56.9,53.4,29.93,NNW,336,3.5,3.5,88,0.00,CLR,,0.00,0.0,WeatherDisplay:10.37,2013-07-24 06:22:00,
2013-07-24 02:28:00,56.7,53.5,29.93,NNW,336,3.5,3.5,89,0.00,CLR,,0.00,0.0,WeatherDisplay:10.37,2013-07-24 06:28:00,
2013-07-24 02:33:00,56.5,53.3,29.93,NNW,336,3.5,3.5,89,0.00,CLR,,0.00,0.0,WeatherDisplay:10.37,2013-07-24 06:33:00,
2013-07-24 02:38:00,56.5,53.3,29.93,NNW,336,3.5,3.5,89,0.00,CLR,,0.00,0.0,WeatherDisplay:10.37,2013-07-24 06:38:00,
2013-07-24 02:43:00,56.5,53.3,29.93,NNW,336,3.5,3.5,89,0.00,CLR,,0.00,0.0,WeatherDisplay:10.37,2013-07-24 06:43:00,
2013-07-24 02:48:00,56.4,53.2,29.93,NNW,336,3.5,3.5,89,0.00,CLR,,0.00,0.0,WeatherDisplay:10.37,2013-07-24 06:48:00,
2013-07-24 02:53:00,56.4,53.2,29.94,NNW,336,3.5,3.5,89,0.00,CLR,,0.00,0.0,WeatherDisplay:10.37,2013-07-24 06:53:00,
2013-07-24 02:58:00,56.3,53.1,29.93,NNW,336,3.5,3.5,89,0.00,CLR,,0.00,0.0,WeatherDisplay:10.37,2013-07-24 06:58:00,
2013-07-24 03:03:00,56.2,53.0,29.94,NNW,336,3.5,3.5,89,0.00,CLR,,0.00,0.0,WeatherDisplay:10.37,2013-07-24 07:03:00,
2013-07-24 03:08:00,56.0,52.8,29.94,NNW,336,4.0,4.0,89,0.00,CLR,,0.00,0.0,WeatherDisplay:10.37,2013-07-24 07:08:00,
2013-07-24 03:13:00,56.0,52.5,29.94,NNW,336,3.5,3.5,88,0.00,CLR,,0.00,0.0,WeatherDisplay:10.37,2013-07-24 07:13:00,
2013-07-24 03:18:00,55.9,52.1,29.94,NNW,336,3.5,3.5,87,0.00,CLR,,0.00,0.0,WeatherDisplay:10.37,2013-07-24 07:18:00,
2013-07-24 03:23:00,55.8,52.0,29.94,NNW,336,3.5,3.5,87,0.00,CLR,,0.00,0.0,WeatherDisplay:10.37,2013-07-24 07:23:00,
2013-07-24 03:28:00,55.7,51.9,29.94,NNW,336,3.5,3.5,87,0.00,CLR,,0.00,0.0,WeatherDisplay:10.37,2013-07-24 07:28:00,
2013-07-24 03:33:00,55.7,51.9,29.95,NNW,336,3.5,3.5,87,0.00,CLR,,0.00,0.0,WeatherDisplay:10.37,2013-07-24 07:33:00,
2013-07-24 03:38:00,55.5,51.7,29.95,NNW,336,3.5,3.5,87,0.00,CLR,,0.00,0.0,WeatherDisplay:10.37,2013-07-24 07:38:00,
2013-07-24 03:43:00,55.5,51.7,29.95,NNW,347,3.5,3.5,87,0.00,CLR,,0.00,0.0,WeatherDisplay:10.37,2013-07-24 07:43:00,
2013-07-24 03:48:00,55.3,50.9,29.95,North,355,3.5,3.6,85,0.00,CLR,,0.00,0.0,WeatherDisplay:10.37,2013-07-24 07:48:00,
2013-07-24 03:53:00,55.1,51.0,29.95,North,350,3.5,3.5,86,0.00,CLR,,0.00,0.0,WeatherDisplay:10.37,2013-07-24 07:53:00,
2013-07-24 03:58:00,55.0,50.6,29.95,North,350,3.5,3.5,85,0.00,CLR,,0.00,0.0,WeatherDisplay:10.37,2013-07-24 07:58:00,
2013-07-24 04:03:00,55.0,50.6,29.95,North,350,4.0,4.0,85,0.00,CLR,,0.00,0.0,WeatherDisplay:10.37,2013-07-24 08:03:00,
2013-07-24 04:08:00,54.8,50.4,29.95,North,350,3.5,3.5,85,0.00,CLR,,0.00,0.0,WeatherDisplay:10.37,2013-07-24 08:08:00,
2013-07-24 04:13:00,54.6,50.2,29.95,North,350,3.5,3.5,85,0.00,CLR,,0.00,0.0,WeatherDisplay:10.37,2013-07-24 08:13:00,
2013-07-24 04:18:00,54.5,50.1,29.95,North,355,4.0,4.0,85,0.00,CLR,,0.00,0.0,WeatherDisplay:10.37,2013-07-24 08:18:00,
2013-07-24 04:23:00,54.4,50.3,29.94,North,355,4.6,4.6,86,0.00,CLR,,0.00,0.0,WeatherDisplay:10.37,2013-07-24 08:23:00,
2013-07-24 04:28:00,54.2,50.1,29.95,North,355,3.5,3.5,86,0.00,CLR,,0.00,0.0,WeatherDisplay:10.37,2013-07-24 08:28:00,
2013-07-24 04:33:00,54.1,50.0,29.94,North,360,4.0,4.0,86,0.00,CLR,,0.00,0.0,WeatherDisplay:10.37,2013-07-24 08:33:00,
2013-07-24 04:38:00,54.0,49.9,29.94,North,360,3.5,3.6,86,0.00,CLR,,0.00,0.0,WeatherDisplay:10.37,2013-07-24 08:38:00,
2013-07-24 04:43:00,53.8,49.7,29.94,North,360,3.5,3.5,86,0.00,CLR,,0.00,0.0,WeatherDisplay:10.37,2013-07-24 08:43:00,
2013-07-24 04:48:00,53.7,49.6,29.94,North,5,4.6,4.6,86,0.00,CLR,,0.00,0.0,WeatherDisplay:10.37,2013-07-24 08:48:00,
2013-07-24 04:53:00,53.6,49.5,29.94,North,5,5.0,5.0,86,0.00,CLR,,0.00,0.0,WeatherDisplay:10.37,2013-07-24 08:53:00,
2013-07-24 04:58:00,53.3,49.5,29.94,North,5,4.6,4.6,87,0.00,CLR,,0.00,0.0,WeatherDisplay:10.37,2013-07-24 08:58:00,
2013-07-24 05:03:00,53.2,49.4,29.95,North,5,3.5,3.5,87,0.00,CLR,,0.00,0.0,WeatherDisplay:10.37,2013-07-24 09:03:00,
2013-07-24 05:08:00,53.3,49.5,29.95,North,5,2.3,2.3,87,0.00,CLR,,0.00,0.0,WeatherDisplay:10.37,2013-07-24 09:08:00,
2013-07-24 05:13:00,53.3,49.5,29.96,North,5,0.0,0.0,87,0.00,CLR,,0.00,0.0,WeatherDisplay:10.37,2013-07-24 09:13:00,
2013-07-24 05:18:00,53.3,49.5,29.97,North,5,2.3,2.3,87,0.00,CLR,,0.00,0.0,WeatherDisplay:10.37,2013-07-24 09:18:00,
2013-07-24 05:23:00,53.1,49.0,29.96,North,5,3.5,3.5,86,0.00,CLR,,0.00,0.0,WeatherDisplay:10.37,2013-07-24 09:23:00,
2013-07-24 05:28:00,52.6,48.8,29.96,North,5,3.5,3.5,87,0.00,CLR,,0.00,0.0,WeatherDisplay:10.37,2013-07-24 09:28:00,
2013-07-24 05:33:00,52.2,48.8,29.96,North,5,3.5,3.5,88,0.00,CLR,,0.00,0.0,WeatherDisplay:10.37,2013-07-24 09:33:00,
2013-07-24 05:38:00,52.0,48.6,29.97,North,5,0.0,0.0,88,0.00,CLR,,0.00,0.0,WeatherDisplay:10.37,2013-07-24 09:38:00,
2013-07-24 05:43:00,51.8,48.4,29.97,North,5,0.0,0.0,88,0.00,CLR,,0.00,0.0,WeatherDisplay:10.37,2013-07-24 09:43:00,
2013-07-24 05:48:00,51.6,48.2,29.97,North,5,0.0,0.0,88,0.00,CLR,,0.00,0.0,WeatherDisplay:10.37,2013-07-24 09:48:00,
2013-07-24 05:53:00,51.3,47.9,29.97,North,5,0.0,0.0,88,0.00,CLR,,0.00,0.0,WeatherDisplay:10.37,2013-07-24 09:53:00,
2013-07-24 05:58:00,51.1,48.0,29.98,North,5,0.0,0.0,89,0.00,CLR,,0.00,0.0,WeatherDisplay:10.37,2013-07-24 09:58:00,
2013-07-24 06:03:00,50.8,47.4,29.98,North,5,2.3,2.3,88,0.00,CLR,,0.00,0.0,WeatherDisplay:10.37,2013-07-24 10:03:00,
2013-07-24 06:08:00,50.5,47.7,29.98,North,5,2.3,2.3,90,0.00,CLR,,0.00,0.0,WeatherDisplay:10.37,2013-07-24 10:08:00,
2013-07-24 06:13:00,50.4,47.6,29.98,North,5,2.3,2.3,90,0.00,CLR,,0.00,0.0,WeatherDisplay:10.37,2013-07-24 10:13:00,
2013-07-24 06:18:00,50.2,47.4,29.98,North,5,0.0,0.0,90,0.00,CLR,,0.00,0.0,WeatherDisplay:10.37,2013-07-24 10:18:00,
2013-07-24 06:23:00,49.9,46.8,29.99,North,5,0.0,0.0,89,0.00,CLR,,0.00,0.0,WeatherDisplay:10.37,2013-07-24 10:23:00,
2013-07-24 06:28:00,49.7,47.2,29.99,North,5,0.0,0.0,91,0.00,CLR,,0.00,0.0,WeatherDisplay:10.37,2013-07-24 10:28:00,
2013-07-24 06:33:00,49.6,47.1,29.99,North,5,0.0,0.0,91,0.00,CLR,,0.00,0.0,WeatherDisplay:10.37,2013-07-24 10:33:00,
2013-07-24 06:38:00,49.3,46.8,29.99,North,5,0.0,0.0,91,0.00,CLR,,0.00,0.0,WeatherDisplay:10.37,2013-07-24 10:38:00,
2013-07-24 06:43:00,49.1,46.6,29.99,North,5,0.0,0.0,91,0.00,CLR,,0.00,5.0,WeatherDisplay:10.37,2013-07-24 10:43:00,
2013-07-24 06:48:00,48.8,46.3,30.00,North,5,0.0,0.0,91,0.00,CLR,,0.00,7.0,WeatherDisplay:10.37,2013-07-24 10:48:00,
2013-07-24 06:53:00,48.9,46.7,30.00,North,5,0.0,0.0,92,0.00,CLR,,0.00,9.0,WeatherDisplay:10.37,2013-07-24 10:53:00,
2013-07-24 06:58:00,48.8,46.6,29.99,North,11,0.0,0.0,92,0.00,CLR,,0.00,11.0,WeatherDisplay:10.37,2013-07-24 10:58:00,
2013-07-24 07:04:00,49.1,47.2,29.99,North,11,0.0,0.0,93,0.00,CLR,,0.00,12.0,WeatherDisplay:10.37,2013-07-24 11:04:00,
2013-07-24 07:09:00,49.6,47.7,30.00,North,11,0.0,0.0,93,0.00,CLR,,0.00,14.0,WeatherDisplay:10.37,2013-07-24 11:09:00,
2013-07-24 07:14:00,50.1,48.2,30.00,North,11,0.0,0.0,93,0.00,CLR,,0.00,16.0,WeatherDisplay:10.37,2013-07-24 11:14:00,
2013-07-24 07:19:00,50.6,48.9,30.00,North,11,0.0,0.0,94,0.00,CLR,,0.00,16.0,WeatherDisplay:10.37,2013-07-24 11:19:00,
2013-07-24 07:24:00,51.1,49.1,30.00,North,11,0.0,0.0,93,0.00,CLR,,0.00,18.0,WeatherDisplay:10.37,2013-07-24 11:24:00,
2013-07-24 07:29:00,51.7,49.7,30.00,North,11,0.0,0.0,93,0.00,CLR,,0.00,19.0,WeatherDisplay:10.37,2013-07-24 11:29:00,
2013-07-24 07:34:00,52.6,50.6,30.01,North,11,0.0,0.0,93,0.00,CLR,,0.00,19.0,WeatherDisplay:10.37,2013-07-24 11:34:00,
2013-07-24 07:39:00,53.3,51.3,30.01,North,11,0.0,0.0,93,0.00,CLR,,0.00,21.0,WeatherDisplay:10.37,2013-07-24 11:39:00,
2013-07-24 07:44:00,54.1,51.8,30.01,North,11,0.0,0.0,92,0.00,CLR,,0.00,21.0,WeatherDisplay:10.37,2013-07-24 11:44:00,
2013-07-24 07:49:00,55.3,53.0,30.01,North,11,0.0,0.0,92,0.00,CLR,,0.00,23.0,WeatherDisplay:10.37,2013-07-24 11:49:00,
2013-07-24 07:54:00,56.1,52.6,30.01,North,11,0.0,0.0,88,0.00,CLR,,0.00,23.0,WeatherDisplay:10.37,2013-07-24 11:54:00,
2013-07-24 07:59:00,56.8,53.3,30.01,NNE,19,1.1,1.1,88,0.00,CLR,,0.00,25.0,WeatherDisplay:10.37,2013-07-24 11:59:00,
2013-07-24 08:04:00,57.6,53.1,30.01,NE,36,3.5,3.5,85,0.00,CLR,,0.00,25.0,WeatherDisplay:10.37,2013-07-24 12:04:00,
2013-07-24 08:09:00,58.0,52.9,30.01,ENE,59,3.5,3.5,83,0.00,CLR,,0.00,26.0,WeatherDisplay:10.37,2013-07-24 12:09:00,
2013-07-24 08:14:00,58.4,53.6,30.01,ENE,58,3.5,3.5,84,0.00,CLR,,0.00,26.0,WeatherDisplay:10.37,2013-07-24 12:14:00,
2013-07-24 08:19:00,58.8,53.3,30.01,ENE,61,3.5,3.5,82,0.00,CLR,,0.00,26.0,WeatherDisplay:10.37,2013-07-24 12:19:00,
2013-07-24 08:24:00,59.3,53.5,30.01,NE,55,3.5,3.5,81,0.00,CLR,,0.00,28.0,WeatherDisplay:10.37,2013-07-24 12:24:00,
2013-07-24 08:29:00,59.6,53.4,30.01,East,91,4.6,4.6,80,0.00,CLR,,0.00,28.0,WeatherDisplay:10.37,2013-07-24 12:29:00,
2013-07-24 08:34:00,59.9,53.4,30.01,NE,44,6.9,6.9,79,0.00,CLR,,0.00,30.0,WeatherDisplay:10.37,2013-07-24 12:34:00,
2013-07-24 08:39:00,60.0,53.1,30.02,ENE,62,4.0,5.5,78,0.00,CLR,,0.00,30.0,WeatherDisplay:10.37,2013-07-24 12:39:00,
2013-07-24 08:44:00,60.2,53.7,30.02,ENE,76,3.5,3.5,79,0.00,CLR,,0.00,32.0,WeatherDisplay:10.37,2013-07-24 12:44:00,
2013-07-24 08:49:00,60.3,52.7,30.02,ENE,67,6.9,6.9,76,0.00,CLR,,0.00,32.0,WeatherDisplay:10.37,2013-07-24 12:49:00,
2013-07-24 08:54:00,60.5,53.3,30.02,NE,44,6.9,6.9,77,0.00,CLR,,0.00,35.0,WeatherDisplay:10.37,2013-07-24 12:54:00,
2013-07-24 08:59:00,60.7,52.7,30.02,ENE,67,7.0,7.0,75,0.00,CLR,,0.00,62.0,WeatherDisplay:10.37,2013-07-24 12:59:00,
2013-07-24 09:04:00,60.9,52.6,30.02,ENE,77,8.1,8.1,74,0.00,CLR,,0.00,111.0,WeatherDisplay:10.37,2013-07-24 13:04:00,
2013-07-24 09:09:00,61.1,53.1,30.02,ENE,59,10.4,10.4,75,0.00,CLR,,0.00,186.0,WeatherDisplay:10.37,2013-07-24 13:09:00,
2013-07-24 09:14:00,61.6,53.2,30.02,ENE,62,6.9,6.9,74,0.00,CLR,,0.00,272.0,WeatherDisplay:10.37,2013-07-24 13:14:00,
2013-07-24 09:19:00,61.8,52.3,30.02,ENE,61,9.2,9.2,71,0.00,CLR,,0.00,353.0,WeatherDisplay:10.37,2013-07-24 13:19:00,
2013-07-24 09:24:00,62.0,53.2,30.02,NE,42,8.0,8.0,73,0.00,CLR,,0.00,410.0,WeatherDisplay:10.37,2013-07-24 13:24:00,
2013-07-24 09:29:00,62.3,52.8,30.02,NE,39,9.2,9.2,71,0.00,CLR,,0.00,436.0,WeatherDisplay:10.37,2013-07-24 13:29:00,
2013-07-24 09:34:00,62.5,53.0,30.02,ENE,62,8.0,8.0,71,0.00,CLR,,0.00,452.0,WeatherDisplay:10.37,2013-07-24 13:34:00,
2013-07-24 09:39:00,63.2,53.3,30.02,NE,43,11.0,11.0,70,0.00,CLR,,0.00,468.0,WeatherDisplay:10.37,2013-07-24 13:39:00,
2013-07-24 09:44:00,63.4,52.2,30.02,NE,54,10.4,10.4,67,0.00,CLR,,0.00,480.0,WeatherDisplay:10.37,2013-07-24 13:44:00,
2013-07-24 09:49:00,63.7,52.5,30.02,NE,47,10.4,10.4,67,0.00,CLR,,0.00,497.0,WeatherDisplay:10.37,2013-07-24 13:49:00,
2013-07-24 09:54:00,64.4,52.8,30.02,NE,49,11.0,11.0,66,0.00,CLR,,0.00,510.0,WeatherDisplay:10.37,2013-07-24 13:54:00,
2013-07-24 09:59:00,64.9,52.4,30.02,NE,40,13.8,13.8,64,0.00,CLR,,0.00,526.0,WeatherDisplay:10.37,2013-07-24 13:59:00,
2013-07-24 10:04:00,65.1,52.2,30.03,ENE,74,13.8,13.8,63,0.00,CLR,,0.00,540.0,WeatherDisplay:10.37,2013-07-24 14:04:00,
2013-07-24 10:09:00,65.2,51.4,30.03,NNE,32,13.8,13.8,61,0.00,CLR,,0.00,552.0,WeatherDisplay:10.37,2013-07-24 14:09:00,
2013-07-24 10:14:00,65.3,51.1,30.03,ENE,57,14.0,14.0,60,0.00,CLR,,0.00,566.0,WeatherDisplay:10.37,2013-07-24 14:14:00,
2013-07-24 10:19:00,65.4,50.7,30.03,NE,46,13.8,13.8,59,0.00,CLR,,0.00,580.0,WeatherDisplay:10.37,2013-07-24 14:19:00,
2013-07-24 10:24:00,65.5,50.8,30.03,NE,35,16.1,16.1,59,0.00,CLR,,0.00,592.0,WeatherDisplay:10.37,2013-07-24 14:24:00,
2013-07-24 10:29:00,65.7,51.4,30.02,NE,36,11.5,11.5,60,0.00,CLR,,0.00,606.0,WeatherDisplay:10.37,2013-07-24 14:29:00,
2013-07-24 10:34:00,66.3,50.6,30.02,NE,53,15.0,15.0,57,0.00,CLR,,0.00,619.0,WeatherDisplay:10.37,2013-07-24 14:34:00,
2013-07-24 10:39:00,66.4,50.2,30.03,ENE,59,15.0,15.0,56,0.00,CLR,,0.00,631.0,WeatherDisplay:10.37,2013-07-24 14:39:00,
2013-07-24 10:44:00,66.7,51.0,30.03,NNE,28,13.8,13.8,57,0.00,CLR,,0.00,643.0,WeatherDisplay:10.37,2013-07-24 14:44:00,
2013-07-24 10:49:00,66.8,51.1,30.03,ENE,73,15.0,15.0,57,0.00,CLR,,0.00,654.0,WeatherDisplay:10.37,2013-07-24 14:49:00,
2013-07-24 10:54:00,67.1,50.9,30.02,NNE,32,13.8,13.8,56,0.00,CLR,,0.00,666.0,WeatherDisplay:10.37,2013-07-24 14:54:00,
2013-07-24 10:59:00,67.3,51.5,30.02,ENE,66,12.7,12.7,57,0.00,CLR,,0.00,680.0,WeatherDisplay:10.37,2013-07-24 14:59:00,
2013-07-24 11:04:00,67.7,51.9,30.02,ENE,68,13.8,13.8,57,0.00,CLR,,0.00,689.0,WeatherDisplay:10.37,2013-07-24 15:04:00,
2013-07-24 11:09:00,68.2,51.9,30.03,ENE,62,13.8,13.8,56,0.00,CLR,,0.00,701.0,WeatherDisplay:10.37,2013-07-24 15:09:00,
2013-07-24 11:14:00,68.1,51.3,30.03,East,82,11.5,11.5,55,0.00,CLR,,0.00,712.0,WeatherDisplay:10.37,2013-07-24 15:14:00,
2013-07-24 11:19:00,68.3,52.0,30.02,NNE,31,10.4,10.4,56,0.00,CLR,,0.00,724.0,WeatherDisplay:10.37,2013-07-24 15:19:00,
2013-07-24 11:24:00,68.8,52.9,30.02,NE,36,9.2,9.2,57,0.00,CLR,,0.00,733.0,WeatherDisplay:10.37,2013-07-24 15:24:00,
2013-07-24 11:29:00,69.3,52.4,30.02,East,84,11.0,11.0,55,0.00,CLR,,0.00,752.0,WeatherDisplay:10.37,2013-07-24 15:29:00,
2013-07-24 11:34:00,69.3,51.9,30.03,NE,51,12.7,12.7,54,0.00,CLR,,0.00,705.0,WeatherDisplay:10.37,2013-07-24 15:34:00,
2013-07-24 11:39:00,69.1,52.7,30.03,ENE,74,10.4,10.4,56,0.00,CLR,,0.00,770.0,WeatherDisplay:10.37,2013-07-24 15:39:00,
2013-07-24 11:44:00,69.8,52.9,30.03,NE,40,11.5,11.5,55,0.00,CLR,,0.00,780.0,WeatherDisplay:10.37,2013-07-24 15:44:00,
2013-07-24 11:49:00,70.2,53.3,30.02,NE,46,12.7,12.7,55,0.00,CLR,,0.00,791.0,WeatherDisplay:10.37,2013-07-24 15:49:00,
2013-07-24 11:54:00,70.3,52.9,30.02,ENE,67,11.0,11.0,54,0.00,CLR,,0.00,803.0,WeatherDisplay:10.37,2013-07-24 15:54:00,
2013-07-24 11:59:00,70.3,51.3,30.02,NNE,32,12.0,12.0,51,0.00,CLR,,0.00,844.0,WeatherDisplay:10.37,2013-07-24 15:59:00,
2013-07-24 12:04:00,70.2,52.3,30.02,NE,36,11.5,11.5,53,0.00,CLR,,0.00,622.0,WeatherDisplay:10.37,2013-07-24 16:04:00,
2013-07-24 12:09:00,70.6,52.1,30.02,NE,45,14.0,14.0,52,0.00,CLR,,0.00,881.0,WeatherDisplay:10.37,2013-07-24 16:09:00,
2013-07-24 12:14:00,70.9,52.4,30.02,ENE,74,10.4,10.4,52,0.00,CLR,,0.00,772.0,WeatherDisplay:10.37,2013-07-24 16:14:00,
2013-07-24 12:19:00,71.1,52.6,30.02,NE,51,13.8,13.8,52,0.00,CLR,,0.00,847.0,WeatherDisplay:10.37,2013-07-24 16:19:00,
2013-07-24 12:25:00,71.3,52.8,30.02,NE,44,9.2,9.2,52,0.00,CLR,,0.00,847.0,WeatherDisplay:10.37,2013-07-24 16:25:00,
2013-07-24 12:30:00,71.9,52.2,30.02,NNE,28,11.5,11.5,50,0.00,CLR,,0.00,851.0,WeatherDisplay:10.37,2013-07-24 16:30:00,
2013-07-24 12:35:00,71.9,51.7,30.03,NE,34,11.5,11.5,49,0.00,CLR,,0.00,854.0,WeatherDisplay:10.37,2013-07-24 16:35:00,
2013-07-24 12:40:00,71.5,52.4,30.03,NE,48,11.5,11.5,51,0.00,CLR,,0.00,860.0,WeatherDisplay:10.37,2013-07-24 16:40:00,
2013-07-24 12:45:00,71.8,52.7,30.03,NE,53,11.5,11.5,51,0.00,CLR,,0.00,856.0,WeatherDisplay:10.37,2013-07-24 16:45:00,
2013-07-24 12:50:00,72.1,53.0,30.03,NE,45,12.7,12.7,51,0.00,CLR,,0.00,872.0,WeatherDisplay:10.37,2013-07-24 16:50:00,
2013-07-24 12:55:00,72.0,52.3,30.03,East,82,11.5,11.5,50,0.00,CLR,,0.00,884.0,WeatherDisplay:10.37,2013-07-24 16:55:00,
2013-07-24 13:00:00,72.2,53.1,30.03,NNE,24,14.0,14.0,51,0.00,CLR,,0.00,814.0,WeatherDisplay:10.37,2013-07-24 17:00:00,
2013-07-24 13:05:00,71.9,51.7,30.03,NNE,15,12.7,12.7,49,0.00,CLR,,0.00,951.0,WeatherDisplay:10.37,2013-07-24 17:05:00,
2013-07-24 13:10:00,71.8,53.2,30.03,NE,38,13.8,13.8,52,0.00,CLR,,0.00,902.0,WeatherDisplay:10.37,2013-07-24 17:10:00,
2013-07-24 13:15:00,71.9,52.8,30.03,ENE,65,12.7,12.7,51,0.00,CLR,,0.00,895.0,WeatherDisplay:10.37,2013-07-24 17:15:00,
2013-07-24 13:20:00,72.2,52.0,30.03,NE,38,11.5,11.5,49,0.00,CLR,,0.00,900.0,WeatherDisplay:10.37,2013-07-24 17:20:00,
2013-07-24 13:25:00,72.4,52.7,30.03,NE,51,9.2,9.2,50,0.00,CLR,,0.00,904.0,WeatherDisplay:10.37,2013-07-24 17:25:00,
2013-07-24 13:30:00,72.7,53.0,30.03,NE,39,11.5,11.5,50,0.00,CLR,,0.00,909.0,WeatherDisplay:10.37,2013-07-24 17:30:00,
2013-07-24 13:35:00,72.8,52.5,30.03,NE,45,10.4,11.4,49,0.00,CLR,,0.00,904.0,WeatherDisplay:10.37,2013-07-24 17:35:00,
2013-07-24 13:40:00,72.7,52.4,30.03,North,10,13.8,13.8,49,0.00,CLR,,0.00,905.0,WeatherDisplay:10.37,2013-07-24 17:40:00,
2013-07-24 13:45:00,72.6,52.9,30.03,NE,50,12.7,12.7,50,0.00,CLR,,0.00,911.0,WeatherDisplay:10.37,2013-07-24 17:45:00,
2013-07-24 13:50:00,72.9,54.2,30.02,North,9,11.5,11.5,52,0.00,CLR,,0.00,909.0,WeatherDisplay:10.37,2013-07-24 17:50:00,
2013-07-24 13:55:00,73.2,52.9,30.02,NE,47,11.5,11.5,49,0.00,CLR,,0.00,907.0,WeatherDisplay:10.37,2013-07-24 17:55:00,
2013-07-24 14:00:00,73.3,54.1,30.03,NE,36,11.5,11.5,51,0.00,CLR,,0.00,905.0,WeatherDisplay:10.37,2013-07-24 18:00:00,
2013-07-24 14:05:00,73.2,54.0,30.02,NNE,21,12.7,12.7,51,0.00,CLR,,0.00,902.0,WeatherDisplay:10.37,2013-07-24 18:05:00,
2013-07-24 14:10:00,73.5,55.3,30.02,NNE,29,11.5,11.5,53,0.00,CLR,,0.00,896.0,WeatherDisplay:10.37,2013-07-24 18:10:00,
2013-07-24 14:15:00,73.6,54.4,30.02,NE,34,15.0,15.0,51,0.00,CLR,,0.00,902.0,WeatherDisplay:10.37,2013-07-24 18:15:00,
2013-07-24 14:20:00,73.5,53.2,30.02,NE,42,8.1,8.1,49,0.00,CLR,,0.00,900.0,WeatherDisplay:10.37,2013-07-24 18:20:00,
2013-07-24 14:25:00,73.4,53.6,30.03,NNE,29,11.5,11.5,50,0.00,CLR,,0.00,900.0,WeatherDisplay:10.37,2013-07-24 18:25:00,
2013-07-24 14:30:00,73.7,53.3,30.02,NNW,346,13.0,13.0,49,0.00,CLR,,0.00,896.0,WeatherDisplay:10.37,2013-07-24 18:30:00,
2013-07-24 14:35:00,73.3,54.6,30.02,NE,52,19.6,19.6,52,0.00,CLR,,0.00,889.0,WeatherDisplay:10.37,2013-07-24 18:35:00,
2013-07-24 14:40:00,73.7,53.9,30.02,NNW,348,11.5,11.5,50,0.00,CLR,,0.00,889.0,WeatherDisplay:10.37,2013-07-24 18:40:00,
2013-07-24 14:45:00,73.8,52.9,30.02,ENE,59,17.3,17.3,48,0.00,CLR,,0.00,888.0,WeatherDisplay:10.37,2013-07-24 18:45:00,
2013-07-24 14:50:00,73.6,53.3,30.02,NE,46,11.5,11.5,49,0.00,CLR,,0.00,729.0,WeatherDisplay:10.37,2013-07-24 18:50:00,
2013-07-24 14:55:00,73.7,52.8,30.02,North,11,13.8,13.8,48,0.00,CLR,,0.00,879.0,WeatherDisplay:10.37,2013-07-24 18:55:00,
2013-07-24 15:00:00,73.4,52.5,30.02,NNE,17,9.2,9.2,48,0.00,CLR,,0.00,875.0,WeatherDisplay:10.37,2013-07-24 19:00:00,
2013-07-24 15:05:00,73.4,53.6,30.02,NNE,33,13.8,13.8,50,0.00,CLR,,0.00,870.0,WeatherDisplay:10.37,2013-07-24 19:05:00,
2013-07-24 15:10:00,73.7,53.3,30.02,North,9,11.5,11.5,49,0.00,CLR,,0.00,868.0,WeatherDisplay:10.37,2013-07-24 19:10:00,
2013-07-24 15:15:00,73.8,55.6,30.02,NNE,23,12.7,12.7,53,0.00,CLR,,0.00,902.0,WeatherDisplay:10.37,2013-07-24 19:15:00,
2013-07-24 15:20:00,74.0,54.7,30.02,NNE,24,13.8,13.8,51,0.00,CLR,,0.00,856.0,WeatherDisplay:10.37,2013-07-24 19:20:00,
2013-07-24 15:25:00,74.1,53.7,30.02,NNE,28,8.1,8.1,49,0.00,CLR,,0.00,847.0,WeatherDisplay:10.37,2013-07-24 19:25:00,
2013-07-24 15:30:00,74.2,54.4,30.02,NW,325,12.0,12.0,50,0.00,CLR,,0.00,842.0,WeatherDisplay:10.37,2013-07-24 19:30:00,
2013-07-24 15:35:00,73.6,54.9,30.02,NNE,15,13.8,13.8,52,0.00,CLR,,0.00,846.0,WeatherDisplay:10.37,2013-07-24 19:35:00,
2013-07-24 15:40:00,73.7,53.3,30.02,North,9,10.4,10.4,49,0.00,CLR,,0.00,671.0,WeatherDisplay:10.37,2013-07-24 19:40:00,
2013-07-24 15:45:00,73.7,53.3,30.02,North,11,12.0,12.0,49,0.00,CLR,,0.00,853.0,WeatherDisplay:10.37,2013-07-24 19:45:00,
2013-07-24 15:50:00,73.9,54.6,30.01,NNE,18,10.0,10.0,51,0.00,CLR,,0.00,816.0,WeatherDisplay:10.37,2013-07-24 19:50:00,
2013-07-24 15:55:00,74.3,54.5,30.01,NE,38,12.7,12.7,50,0.00,CLR,,0.00,803.0,WeatherDisplay:10.37,2013-07-24 19:55:00,
2013-07-24 16:00:00,74.2,54.4,30.01,NE,47,11.5,11.5,50,0.00,CLR,,0.00,791.0,WeatherDisplay:10.37,2013-07-24 20:00:00,
2013-07-24 16:05:00,74.1,54.3,30.01,NE,45,11.5,11.5,50,0.00,CLR,,0.00,784.0,WeatherDisplay:10.37,2013-07-24 20:05:00,
2013-07-24 16:10:00,74.3,53.3,30.02,ENE,58,13.8,13.8,48,0.00,CLR,,0.00,773.0,WeatherDisplay:10.37,2013-07-24 20:10:00,
2013-07-24 16:15:00,74.1,53.2,30.01,North,9,11.5,11.5,48,0.00,CLR,,0.00,763.0,WeatherDisplay:10.37,2013-07-24 20:15:00,
2013-07-24 16:20:00,74.2,53.2,30.01,North,360,11.5,11.5,48,0.00,CLR,,0.00,751.0,WeatherDisplay:10.37,2013-07-24 20:20:00,
2013-07-24 16:25:00,74.3,53.3,30.01,NE,45,11.5,11.5,48,0.00,CLR,,0.00,744.0,WeatherDisplay:10.37,2013-07-24 20:25:00,
2013-07-24 16:30:00,74.1,53.2,30.01,NE,45,9.2,9.2,48,0.00,CLR,,0.00,733.0,WeatherDisplay:10.37,2013-07-24 20:30:00,
2013-07-24 16:35:00,74.2,53.2,30.01,North,360,11.5,11.5,48,0.00,CLR,,0.00,724.0,WeatherDisplay:10.37,2013-07-24 20:35:00,
2013-07-24 16:40:00,73.8,52.9,30.01,NNE,32,11.5,11.5,48,0.00,CLR,,0.00,726.0,WeatherDisplay:10.37,2013-07-24 20:40:00,
2013-07-24 16:45:00,73.9,53.0,30.01,NNE,26,11.5,11.5,48,0.00,CLR,,0.00,744.0,WeatherDisplay:10.37,2013-07-24 20:45:00,
2013-07-24 16:50:00,73.5,52.0,30.01,ENE,60,11.5,11.5,47,0.00,CLR,,0.00,766.0,WeatherDisplay:10.37,2013-07-24 20:50:00,
2013-07-24 16:55:00,73.7,52.8,30.01,NE,45,10.4,10.4,48,0.00,CLR,,0.00,744.0,WeatherDisplay:10.37,2013-07-24 20:55:00,
2013-07-24 17:00:00,73.4,53.1,30.01,North,360,11.0,11.0,49,0.00,CLR,,0.00,617.0,WeatherDisplay:10.37,2013-07-24 21:00:00,
2013-07-24 17:05:00,72.4,51.0,30.01,North,5,11.5,11.5,47,0.00,CLR,,0.00,330.0,WeatherDisplay:10.37,2013-07-24 21:05:00,
2013-07-24 17:10:00,71.7,52.6,30.01,NNE,26,10.4,10.4,51,0.00,CLR,,0.00,369.0,WeatherDisplay:10.37,2013-07-24 21:10:00,
2013-07-24 17:15:00,71.7,52.6,30.01,NE,53,8.1,8.1,51,0.00,CLR,,0.00,320.0,WeatherDisplay:10.37,2013-07-24 21:15:00,
2013-07-24 17:20:00,71.9,52.8,30.01,NNE,30,9.0,9.0,51,0.00,CLR,,0.00,315.0,WeatherDisplay:10.37,2013-07-24 21:20:00,
2013-07-24 17:25:00,72.8,54.7,30.00,NNE,15,9.2,9.2,53,0.00,CLR,,0.00,617.0,WeatherDisplay:10.37,2013-07-24 21:25:00,
2013-07-24 17:30:00,73.0,52.1,30.00,NE,43,13.8,13.8,48,0.00,CLR,,0.00,536.0,WeatherDisplay:10.37,2013-07-24 21:30:00,
2013-07-24 17:35:00,72.8,51.4,30.00,North,5,11.5,11.5,47,0.00,CLR,,0.00,638.0,WeatherDisplay:10.37,2013-07-24 21:35:00,
2013-07-24 17:40:00,72.9,51.5,30.00,NNE,12,11.5,11.5,47,0.00,CLR,,0.00,531.0,WeatherDisplay:10.37,2013-07-24 21:40:00,
2013-07-24 17:46:00,72.8,52.0,30.00,NNE,32,6.9,6.9,48,0.00,CLR,,0.00,606.0,WeatherDisplay:10.37,2013-07-24 21:46:00,
2013-07-24 17:51:00,73.1,53.9,30.00,NE,42,10.4,10.4,51,0.00,CLR,,0.00,622.0,WeatherDisplay:10.37,2013-07-24 21:51:00,
2013-07-24 17:56:00,73.2,51.8,30.00,NE,51,13.8,13.8,47,0.00,CLR,,0.00,292.0,WeatherDisplay:10.37,2013-07-24 21:56:00,
2013-07-24 18:01:00,72.2,50.8,30.01,NNW,347,8.1,8.1,47,0.00,CLR,,0.00,357.0,WeatherDisplay:10.37,2013-07-24 22:01:00,
2013-07-24 18:06:00,71.9,52.2,30.01,NNE,21,8.1,8.1,50,0.00,CLR,,0.00,624.0,WeatherDisplay:10.37,2013-07-24 22:06:00,
2013-07-24 18:11:00,72.1,51.3,30.01,NE,38,10.4,10.4,48,0.00,CLR,,0.00,464.0,WeatherDisplay:10.37,2013-07-24 22:11:00,
2013-07-24 18:16:00,72.2,52.5,30.01,NNE,28,10.4,10.4,50,0.00,CLR,,0.00,564.0,WeatherDisplay:10.37,2013-07-24 22:16:00,
2013-07-24 18:21:00,72.2,52.0,30.01,North,5,10.4,10.4,49,0.00,CLR,,0.00,376.0,WeatherDisplay:10.37,2013-07-24 22:21:00,
2013-07-24 18:26:00,71.9,52.8,30.01,NNE,14,8.1,8.1,51,0.00,CLR,,0.00,473.0,WeatherDisplay:10.37,2013-07-24 22:26:00,
2013-07-24 18:31:00,71.9,53.3,30.01,NE,36,9.2,9.2,52,0.00,CLR,,0.00,455.0,WeatherDisplay:10.37,2013-07-24 22:31:00,
2013-07-24 18:36:00,72.0,52.9,30.01,North,5,11.5,11.5,51,0.00,CLR,,0.00,415.0,WeatherDisplay:10.37,2013-07-24 22:36:00,
2013-07-24 18:41:00,72.0,52.9,30.01,NNE,14,11.5,11.5,51,0.00,CLR,,0.00,399.0,WeatherDisplay:10.37,2013-07-24 22:41:00,
2013-07-24 18:46:00,71.4,51.8,30.01,North,11,13.0,13.0,50,0.00,CLR,,0.00,399.0,WeatherDisplay:10.37,2013-07-24 22:46:00,
2013-07-24 18:51:00,71.2,51.6,30.01,North,355,11.5,11.5,50,0.00,CLR,,0.00,272.0,WeatherDisplay:10.37,2013-07-24 22:51:00,
2013-07-24 18:56:00,70.8,51.8,30.01,NNE,13,11.5,11.5,51,0.00,CLR,,0.00,359.0,WeatherDisplay:10.37,2013-07-24 22:56:00,
2013-07-24 19:01:00,70.8,51.8,30.01,NNE,13,10.4,10.4,51,0.00,CLR,,0.00,341.0,WeatherDisplay:10.37,2013-07-24 23:01:00,
2013-07-24 19:06:00,70.8,52.3,30.01,NNE,26,8.1,8.1,52,0.00,CLR,,0.00,320.0,WeatherDisplay:10.37,2013-07-24 23:06:00,
2013-07-24 19:11:00,70.8,51.2,30.01,NE,34,9.2,9.2,50,0.00,CLR,,0.00,302.0,WeatherDisplay:10.37,2013-07-24 23:11:00,
2013-07-24 19:16:00,70.5,51.5,30.01,NE,55,11.5,11.5,51,0.00,CLR,,0.00,290.0,WeatherDisplay:10.37,2013-07-24 23:16:00,
2013-07-24 19:21:00,70.3,51.3,30.01,NNE,32,9.2,9.2,51,0.00,CLR,,0.00,274.0,WeatherDisplay:10.37,2013-07-24 23:21:00,
2013-07-24 19:26:00,70.2,51.7,30.01,NNE,15,7.0,7.0,52,0.00,CLR,,0.00,258.0,WeatherDisplay:10.37,2013-07-24 23:26:00,
2013-07-24 19:31:00,70.1,51.7,30.02,NE,40,10.4,10.4,52,0.00,CLR,,0.00,248.0,WeatherDisplay:10.37,2013-07-24 23:31:00,
2013-07-24 19:36:00,70.0,51.6,30.02,NNE,25,8.1,8.1,52,0.00,CLR,,0.00,230.0,WeatherDisplay:10.37,2013-07-24 23:36:00,
2013-07-24 19:41:00,69.7,51.3,30.02,ENE,57,10.0,10.0,52,0.00,CLR,,0.00,218.0,WeatherDisplay:10.37,2013-07-24 23:41:00,
2013-07-24 19:46:00,69.6,51.2,30.02,NE,48,8.1,8.1,52,0.00,CLR,,0.00,207.0,WeatherDisplay:10.37,2013-07-24 23:46:00,
2013-07-24 19:52:00,69.5,51.6,30.02,NE,38,10.0,10.0,53,0.00,CLR,,0.00,192.0,WeatherDisplay:10.37,2013-07-24 23:52:00,
2013-07-24 19:57:00,69.3,51.9,30.02,NNE,32,8.0,8.0,54,0.00,CLR,,0.00,169.0,WeatherDisplay:10.37,2013-07-24 23:57:00,
2013-07-24 20:02:00,69.0,51.7,30.02,NNE,30,9.2,9.2,54,0.00,CLR,,0.00,149.0,WeatherDisplay:10.37,2013-07-25 00:02:00,
2013-07-24 20:07:00,68.8,51.5,30.02,NNE,30,8.1,8.1,54,0.00,CLR,,0.00,158.0,WeatherDisplay:10.37,2013-07-25 00:07:00,
2013-07-24 20:12:00,68.5,51.2,30.02,North,355,9.2,9.2,54,0.00,CLR,,0.00,114.0,WeatherDisplay:10.37,2013-07-25 00:12:00,
2013-07-24 20:17:00,68.1,51.3,30.02,NE,34,5.8,5.8,55,0.00,CLR,,0.00,70.0,WeatherDisplay:10.37,2013-07-25 00:17:00,
2013-07-24 20:22:00,67.7,51.9,30.03,NNE,26,6.9,6.9,57,0.00,CLR,,0.00,54.0,WeatherDisplay:10.37,2013-07-25 00:22:00,
2013-07-24 20:27:00,67.4,52.1,30.03,NNE,14,6.9,6.9,58,0.00,CLR,,0.00,44.0,WeatherDisplay:10.37,2013-07-25 00:27:00,
2013-07-24 20:32:00,67.0,51.7,30.03,North,360,9.0,9.0,58,0.00,CLR,,0.00,40.0,WeatherDisplay:10.37,2013-07-25 00:32:00,
2013-07-24 20:37:00,66.5,51.7,30.03,NE,34,5.8,5.8,59,0.00,CLR,,0.00,44.0,WeatherDisplay:10.37,2013-07-25 00:37:00,
2013-07-24 20:42:00,66.1,51.8,30.03,NE,48,5.8,5.8,60,0.00,CLR,,0.00,37.0,WeatherDisplay:10.37,2013-07-25 00:42:00,
2013-07-24 20:48:00,65.9,52.1,30.04,NNE,32,4.6,4.6,61,0.00,BKN,,0.00,30.0,WeatherDisplay:10.37,2013-07-25 00:48:00,
2013-07-24 20:53:00,65.6,52.2,30.04,NE,34,4.6,4.6,62,0.00,BKN,,0.00,23.0,WeatherDisplay:10.37,2013-07-25 00:53:00,
2013-07-24 20:58:00,65.3,52.4,30.04,NE,46,5.8,5.8,63,0.00,BKN,,0.00,16.0,WeatherDisplay:10.37,2013-07-25 00:58:00,
2013-07-24 21:03:00,64.9,52.0,30.04,NE,34,5.0,5.0,63,0.00,OVC,,0.00,12.0,WeatherDisplay:10.37,2013-07-25 01:03:00,
2013-07-24 21:08:00,64.5,52.0,30.04,NE,34,4.0,4.0,64,0.00,OVC,,0.00,9.0,WeatherDisplay:10.37,2013-07-25 01:08:00,
2013-07-24 21:13:00,64.1,52.1,30.04,NNE,33,4.6,4.6,65,0.00,OVC,,0.00,5.0,WeatherDisplay:10.37,2013-07-25 01:13:00,
2013-07-24 21:18:00,63.7,52.1,30.04,NE,44,3.5,3.5,66,0.00,OVC,,0.00,0.0,WeatherDisplay:10.37,2013-07-25 01:18:00,
2013-07-24 21:23:00,63.3,52.2,30.03,NE,38,3.5,3.5,67,0.00,OVC,,0.00,0.0,WeatherDisplay:10.37,2013-07-25 01:23:00,
2013-07-24 21:28:00,63.0,52.3,30.03,NE,39,4.0,4.0,68,0.00,OVC,,0.00,0.0,WeatherDisplay:10.37,2013-07-25 01:28:00,
2013-07-24 21:33:00,62.5,52.2,30.03,NE,44,3.5,3.5,69,0.00,OVC,,0.00,0.0,WeatherDisplay:10.37,2013-07-25 01:33:00,
2013-07-24 21:38:00,62.1,52.2,30.03,NE,44,2.3,2.3,70,0.00,OVC,,0.00,0.0,WeatherDisplay:10.37,2013-07-25 01:38:00,
2013-07-24 21:43:00,61.5,52.0,30.03,NE,44,2.3,2.3,71,0.00,OVC,,0.00,0.0,WeatherDisplay:10.37,2013-07-25 01:43:00,
2013-07-24 21:48:00,60.9,52.2,30.03,NE,44,2.3,2.3,73,0.00,OVC,,0.00,0.0,WeatherDisplay:10.37,2013-07-25 01:48:00,
2013-07-24 21:53:00,60.4,52.1,30.03,NE,44,2.0,2.0,74,0.00,OVC,,0.00,0.0,WeatherDisplay:10.37,2013-07-25 01:53:00,
2013-07-24 21:58:00,60.0,52.1,30.03,NE,44,2.3,2.3,75,0.00,OVC,,0.00,0.0,WeatherDisplay:10.37,2013-07-25 01:58:00,
2013-07-24 22:03:00,59.5,51.9,30.03,NE,44,2.3,2.3,76,0.00,BKN,,0.00,0.0,WeatherDisplay:10.37,2013-07-25 02:03:00,
2013-07-24 22:08:00,59.0,51.8,30.03,NE,44,2.3,2.3,77,0.00,BKN,,0.00,0.0,WeatherDisplay:10.37,2013-07-25 02:08:00,
2013-07-24 22:13:00,58.6,51.8,30.03,NE,44,2.3,2.3,78,0.00,BKN,,0.00,0.0,WeatherDisplay:10.37,2013-07-25 02:13:00,
2013-07-24 22:18:00,58.1,51.6,30.03,NE,44,2.3,2.3,79,0.00,BKN,,0.00,0.0,WeatherDisplay:10.37,2013-07-25 02:18:00,
2013-07-24 22:23:00,57.7,51.6,30.03,NE,44,2.3,2.3,80,0.00,BKN,,0.00,0.0,WeatherDisplay:10.37,2013-07-25 02:23:00,
2013-07-24 22:28:00,57.2,51.1,30.03,NE,44,2.3,2.3,80,0.00,BKN,,0.00,0.0,WeatherDisplay:10.37,2013-07-25 02:28:00,
2013-07-24 22:33:00,56.8,51.4,30.03,NE,44,2.3,2.3,82,0.00,BKN,,0.00,0.0,WeatherDisplay:10.37,2013-07-25 02:33:00,
2013-07-24 22:38:00,56.4,51.0,30.03,NE,44,3.5,3.5,82,0.00,BKN,,0.00,0.0,WeatherDisplay:10.37,2013-07-25 02:38:00,
2013-07-24 22:43:00,56.2,50.8,30.03,NNE,32,3.5,3.5,82,0.00,BKN,,0.00,0.0,WeatherDisplay:10.37,2013-07-25 02:43:00,
2013-07-24 22:48:00,55.9,50.8,30.03,NNE,32,3.5,3.5,83,0.00,CLR,,0.00,0.0,WeatherDisplay:10.37,2013-07-25 02:48:00,
2013-07-24 22:53:00,55.6,50.5,30.03,NNE,32,2.3,2.3,83,0.00,CLR,,0.00,0.0,WeatherDisplay:10.37,2013-07-25 02:53:00,
2013-07-24 22:58:00,55.3,50.5,30.03,NNE,32,0.0,0.0,84,0.00,CLR,,0.00,0.0,WeatherDisplay:10.37,2013-07-25 02:58:00,
2013-07-24 23:03:00,55.3,50.9,30.03,NNE,32,0.0,0.0,85,0.00,CLR,,0.00,0.0,WeatherDisplay:10.37,2013-07-25 03:03:00,
2013-07-24 23:09:00,55.5,50.7,30.03,NNE,32,1.1,1.1,84,0.00,CLR,,0.00,0.0,WeatherDisplay:10.37,2013-07-25 03:09:00,
2013-07-24 23:14:00,55.4,50.3,30.03,NNE,32,1.1,1.1,83,0.00,CLR,,0.00,0.0,WeatherDisplay:10.37,2013-07-25 03:14:00,
2013-07-24 23:19:00,55.1,50.0,30.03,NNE,32,0.0,0.0,83,0.00,CLR,,0.00,0.0,WeatherDisplay:10.37,2013-07-25 03:19:00,
2013-07-24 23:24:00,54.9,50.2,30.03,NNE,32,0.0,0.0,84,0.00,CLR,,0.00,0.0,WeatherDisplay:10.37,2013-07-25 03:24:00,
2013-07-24 23:29:00,54.5,49.8,30.03,NNE,32,1.0,0.0,84,0.00,CLR,,0.00,0.0,WeatherDisplay:10.37,2013-07-25 03:29:00,
2013-07-24 23:35:00,54.0,49.6,30.03,NNE,32,2.3,2.3,85,0.00,CLR,,0.00,0.0,WeatherDisplay:10.37,2013-07-25 03:35:00,
2013-07-24 23:41:00,53.5,49.1,30.03,NNE,32,3.0,3.0,85,0.00,CLR,,0.00,0.0,WeatherDisplay:10.37,2013-07-25 03:41:00,
2013-07-24 23:46:00,53.4,49.6,30.04,NNE,32,2.3,2.3,87,0.00,CLR,,0.00,0.0,WeatherDisplay:10.37,2013-07-25 03:46:00,
2013-07-24 23:52:00,53.8,50.0,30.04,North,5,3.5,3.5,87,0.00,CLR,,0.00,0.0,WeatherDisplay:10.37,2013-07-25 03:52:00,
2013-07-24 23:57:00,53.9,49.8,30.04,North,5,2.3,2.3,86,0.00,CLR,,0.00,0.0,WeatherDisplay:10.37,2013-07-25 03:57:00,